This demonstration page uses our WeatherBlox Daily Observations layout. Learn more.

Left ArrowRight Arrow

Hourly Observations for October 11, 2015

Temp ( °F °C ) Dew Point ( °F °C ) Humidity (%) Winds ( mph kmh ) Pressure ( in mb ) Visibility ( mi km ) Precip ( " mm )
12:15 am 00:15 Clear 63 17 52 11 68 68 undefined N/A 29.83 1010 10 16 0.00 0.00
12:35 am 00:35 Clear 61 16 52 11 72 72 undefined N/A 29.80 1009 10 16 0.00 0.00
12:55 am 00:55 Clear 61 16 52 11 72 72 SSW 12 19 29.80 1009 10 16 0.00 0.00
1:15 am 01:15 Clear 61 16 52 11 72 72 SSW 12 19 29.80 1009 10 16 0.00 0.00
1:35 am 01:35 Clear 61 16 52 11 72 72 SSW 14 22 29.80 1009 10 16 0.00 0.00
1:55 am 01:55 Clear 61 16 52 11 72 72 SSW 12 19 29.80 1009 10 16 0.00 0.00
2:15 am 02:15 Clear 61 16 52 11 72 72 S 9 15 29.77 1008 10 16 0.00 0.00
2:35 am 02:35 Clear 59 15 52 11 77 77 SSW 9 15 29.77 1008 10 16 0.00 0.00
2:55 am 02:55 Clear 59 15 52 11 77 77 ESE 8 13 29.77 1008 10 16 0.00 0.00
3:15 am 03:15 Clear 57 14 52 11 82 82 S 9 15 29.77 1008 10 16 0.00 0.00
3:35 am 03:35 Clear 57 14 50 10 77 77 ENE 8 13 29.77 1008 10 16 0.00 0.00
3:55 am 03:55 Clear 55 13 50 10 82 82 undefined N/A 29.80 1009 10 16 0.00 0.00
4:15 am 04:15 Clear 55 13 50 10 82 82 SW 7 11 29.80 1009 10 16 0.00 0.00
4:35 am 04:35 Clear 55 13 48 9 77 77 NE 7 11 29.77 1008 10 16 0.00 0.00
4:55 am 04:55 Clear 55 13 48 9 77 77 SW 5 7 29.77 1008 10 16 0.00 0.00
5:15 am 05:15 Clear 55 13 48 9 77 77 SW 6 9 29.77 1008 10 16 0.00 0.00
5:35 am 05:35 Clear 54 12 48 9 82 82 SSW 8 13 29.77 1008 10 16 0.00 0.00
5:55 am 05:55 Clear 55 13 48 9 77 77 SW 7 11 29.77 1008 10 16 0.00 0.00
6:15 am 06:15 Clear 55 13 46 8 72 72 SW 7 11 29.77 1008 10 16 0.00 0.00
6:35 am 06:35 Clear 55 13 46 8 72 72 WSW 5 7 29.77 1008 10 16 0.00 0.00
6:55 am 06:55 Clear 52 11 45 7 77 77 undefined N/A 29.74 1007 10 16 0.00 0.00
7:15 am 07:15 Clear 54 12 46 8 77 77 SW 8 13 29.74 1007 10 16 0.00 0.00
7:35 am 07:35 Clear 54 12 45 7 72 72 SW 6 9 29.74 1007 10 16 0.00 0.00
7:55 am 07:55 Sunny 52 11 45 7 77 77 SW 6 9 29.74 1007 10 16 0.00 0.00
8:15 am 08:15 Sunny 54 12 45 7 72 72 SW 7 11 29.74 1007 10 16 0.00 0.00
8:35 am 08:35 Sunny 55 13 45 7 67 67 SW 6 9 29.74 1007 10 16 0.00 0.00
8:55 am 08:55 Sunny 55 13 46 8 72 72 SW 7 11 29.74 1007 10 16 0.00 0.00
9:15 am 09:15 Sunny 57 14 46 8 67 67 WSW 7 11 29.71 1006 10 16 0.00 0.00
9:35 am 09:35 Sunny 61 16 46 8 59 59 WSW 6 9 29.71 1006 10 16 0.00 0.00
9:55 am 09:55 Sunny 64 18 45 7 49 49 WSW 8 13 29.68 1005 10 16 0.00 0.00
10:15 am 10:15 Sunny 66 19 46 8 49 49 WSW 8 13 29.68 1005 10 16 0.00 0.00
10:35 am 10:35 Sunny 70 21 46 8 43 43 WSW 8 13 29.62 1003 10 16 0.00 0.00
10:55 am 10:55 Sunny 72 22 46 8 41 41 WSW 10 17 29.62 1003 10 16 0.00 0.00
11:15 am 11:15 Sunny 73 23 46 8 38 38 WSW 10 17 29.62 1003 10 16 0.00 0.00
11:35 am 11:35 Sunny 75 24 48 9 39 39 SW 10 17 29.62 1003 10 16 0.00 0.00
11:55 am 11:55 Sunny 79 26 46 8 32 32 WSW 9 15 29.59 1002 10 16 0.00 0.00
12:15 pm 12:15 Sunny 82 28 48 9 30 30 SW 10 17 29.59 1002 10 16 0.00 0.00
12:35 pm 12:35 Sunny 84 29 48 9 29 29 SW 10 17 29.53 1000 10 16 0.00 0.00
12:55 pm 12:55 Sunny 90 32 48 9 24 24 SW 10 17 29.53 1000 10 16 0.00 0.00
1:15 pm 13:15 Sunny 90 32 46 8 22 22 SW 12 19 29.53 1000 10 16 0.00 0.00
1:55 pm 13:55 Sunny 93 34 45 7 19 19 SSW 13 20 29.47 998 10 16 0.00 0.00
2:15 pm 14:15 Sunny 93 34 41 5 16 16 SW 16 26 29.44 997 10 16 0.00 0.00
2:35 pm 14:35 Sunny 95 35 39 4 14 14 WSW 13 20 29.44 997 10 16 0.00 0.00
2:55 pm 14:55 Sunny 95 35 39 4 14 14 SW 15 24 29.44 997 10 16 0.00 0.00
3:15 pm 15:15 Sunny 95 35 39 4 14 14 WSW 15 24 29.44 997 10 16 0.00 0.00
3:35 pm 15:35 Sunny 95 35 39 4 14 14 WSW 16 26 29.44 997 10 16 0.00 0.00
3:55 pm 15:55 Sunny 95 35 39 4 14 14 WSW 13 20 29.44 997 10 16 0.00 0.00
4:15 pm 16:15 Sunny 95 35 37 3 13 13 WSW 18 30 29.44 997 10 16 0.00 0.00
4:35 pm 16:35 Sunny 95 35 39 4 14 14 WSW 15 24 29.41 996 10 16 0.00 0.00
4:55 pm 16:55 Sunny 93 34 39 4 15 15 SSW 16 26 29.41 996 10 16 0.00 0.00
5:15 pm 17:15 Sunny 93 34 37 3 14 14 S 16 26 29.41 996 10 16 0.00 0.00
5:35 pm 17:35 Sunny 91 33 37 3 15 15 SSW 13 20 29.41 996 10 16 0.00 0.00
5:55 pm 17:55 Sunny 91 33 37 3 15 15 SW 10 17 29.41 996 10 16 0.00 0.00
6:15 pm 18:15 Sunny 90 32 37 3 16 16 SSW 10 17 29.41 996 10 16 0.00 0.00
6:35 pm 18:35 Sunny 88 31 37 3 17 17 SSW 10 17 29.44 997 10 16 0.00 0.00
6:55 pm 18:55 Sunny 84 29 37 3 19 19 SW 9 15 29.44 997 10 16 0.00 0.00
7:15 pm 19:15 Clear 81 27 39 4 23 23 S 10 17 29.47 998 10 16 0.00 0.00
7:35 pm 19:35 Clear 82 28 37 3 20 20 NE 10 17 29.44 997 10 16 0.00 0.00
7:55 pm 19:55 Clear 79 26 39 4 24 24 SW 8 13 29.50 999 10 16 0.00 0.00
8:15 pm 20:15 Clear 79 26 39 4 24 24 NNW 20 31 29.53 1000 10 16 0.00 0.00
8:35 pm 20:35 Clear 79 26 43 6 28 28 NNW 12 19 29.53 1000 10 16 0.00 0.00
8:55 pm 20:55 Clear 79 26 43 6 28 28 N 17 28 29.56 1001 10 16 0.00 0.00
9:15 pm 21:15 Clear 75 24 43 6 31 31 N 18 30 29.62 1003 10 16 0.00 0.00
9:35 pm 21:35 Clear 73 23 43 6 33 33 N 22 35 29.65 1004 10 16 0.00 0.00
9:55 pm 21:55 Clear 73 23 41 5 31 31 N 18 30 29.65 1004 10 16 0.00 0.00
10:15 pm 22:15 Clear 70 21 41 5 35 35 N 14 22 29.71 1006 10 16 0.00 0.00
10:35 pm 22:35 Clear 66 19 41 5 40 40 N 12 19 29.71 1006 10 16 0.00 0.00
10:55 pm 22:55 Clear 66 19 41 5 40 40 N 13 20 29.71 1006 10 16 0.00 0.00
11:15 pm 23:15 Clear 66 19 39 4 37 37 N 14 22 29.74 1007 10 16 0.00 0.00
11:35 pm 23:35 Clear 66 19 39 4 37 37 N 12 19 29.74 1007 10 16 0.00 0.00
11:55 pm 23:55 Clear 64 18 39 4 40 40 NNW 10 17 29.77 1008 10 16 0.00 0.00

Powered by AerisWeather